Year,Month,Day,Hour,Minute,Value (Times are PST for temperature in C)
2013,07,15,00,00,15.30
2013,07,15,00,01,15.30
2013,07,15,00,02,15.30
2013,07,15,00,03,15.30
2013,07,15,00,04,15.30
2013,07,15,00,05,15.20
2013,07,15,00,06,15.20
2013,07,15,00,07,15.20
2013,07,15,00,08,15.20
2013,07,15,00,09,15.20
2013,07,15,00,10,15.10
2013,07,15,00,11,15.10
2013,07,15,00,12,15.10
2013,07,15,00,13,15.10
2013,07,15,00,14,15.10
2013,07,15,00,15,15.00
2013,07,15,00,16,15.00
2013,07,15,00,17,15.00
2013,07,15,00,18,15.00
2013,07,15,00,19,15.00
2013,07,15,00,20,15.00
2013,07,15,00,21,15.00
2013,07,15,00,22,15.00
2013,07,15,00,23,15.00
2013,07,15,00,24,14.90
2013,07,15,00,25,14.90
2013,07,15,00,26,14.90
2013,07,15,00,27,14.90
2013,07,15,00,28,14.90
2013,07,15,00,29,14.90
2013,07,15,00,30,14.90
2013,07,15,00,31,14.90
2013,07,15,00,32,14.90
2013,07,15,00,33,14.90
2013,07,15,00,34,14.90
2013,07,15,00,35,14.90
2013,07,15,00,36,14.90
2013,07,15,00,37,14.80
2013,07,15,00,38,14.80
2013,07,15,00,39,14.80
2013,07,15,00,40,14.80
2013,07,15,00,41,14.80
2013,07,15,00,42,14.80
2013,07,15,00,43,14.80
2013,07,15,00,44,14.80
2013,07,15,00,45,14.80
2013,07,15,00,46,14.80
2013,07,15,00,47,14.80
2013,07,15,00,48,14.80
2013,07,15,00,49,14.80
2013,07,15,00,50,14.70
2013,07,15,00,51,14.70
2013,07,15,00,52,14.70
2013,07,15,00,53,14.60
2013,07,15,00,54,14.60
2013,07,15,00,55,14.60
2013,07,15,00,56,14.50
2013,07,15,00,57,14.50
2013,07,15,00,58,14.50
2013,07,15,00,59,14.40
2013,07,15,01,00,14.40
2013,07,15,01,01,14.40
2013,07,15,01,02,14.30
2013,07,15,01,03,14.30
2013,07,15,01,04,14.30
2013,07,15,01,05,14.30
2013,07,15,01,06,14.30
2013,07,15,01,07,14.30
2013,07,15,01,08,14.30
2013,07,15,01,09,14.30
2013,07,15,01,10,14.30
2013,07,15,01,11,14.30
2013,07,15,01,12,14.20
2013,07,15,01,13,14.20
2013,07,15,01,14,14.20
2013,07,15,01,15,14.20
2013,07,15,01,16,14.20
2013,07,15,01,17,14.20
2013,07,15,01,18,14.20
2013,07,15,01,19,14.20
2013,07,15,01,20,14.20
2013,07,15,01,21,14.20
2013,07,15,01,22,14.20
2013,07,15,01,23,14.20
2013,07,15,01,24,14.20
2013,07,15,01,25,14.20
2013,07,15,01,26,14.20
2013,07,15,01,27,14.20
2013,07,15,01,28,14.20
2013,07,15,01,29,14.20
2013,07,15,01,30,14.20
2013,07,15,01,31,14.20
2013,07,15,01,32,14.20
2013,07,15,01,33,14.20
2013,07,15,01,34,14.20
2013,07,15,01,35,14.20
2013,07,15,01,36,14.20
2013,07,15,01,37,14.20
2013,07,15,01,38,14.20
2013,07,15,01,39,14.20
2013,07,15,01,40,14.20
2013,07,15,01,41,14.20
2013,07,15,01,42,14.20
2013,07,15,01,43,14.20
2013,07,15,01,44,14.20
2013,07,15,01,45,14.20
2013,07,15,01,46,14.10
2013,07,15,01,47,14.10
2013,07,15,01,48,14.10
2013,07,15,01,49,14.10
2013,07,15,01,50,14.10
2013,07,15,01,51,14.10
2013,07,15,01,52,14.00
2013,07,15,01,53,14.00
2013,07,15,01,54,14.00
2013,07,15,01,55,14.00
2013,07,15,01,56,14.00
2013,07,15,01,57,14.00
2013,07,15,01,58,14.00
2013,07,15,01,59,13.90
2013,07,15,02,00,13.90
2013,07,15,02,01,13.90
2013,07,15,02,02,13.90
2013,07,15,02,03,13.90
2013,07,15,02,04,13.90
2013,07,15,02,05,13.90
2013,07,15,02,06,13.90
2013,07,15,02,07,13.90
2013,07,15,02,08,13.90
2013,07,15,02,09,13.90
2013,07,15,02,10,13.90
2013,07,15,02,11,13.90
2013,07,15,02,12,13.90
2013,07,15,02,13,13.90
2013,07,15,02,14,13.90
2013,07,15,02,15,13.90
2013,07,15,02,16,14.00
2013,07,15,02,17,14.00
2013,07,15,02,18,14.00
2013,07,15,02,19,14.00
2013,07,15,02,20,14.00
2013,07,15,02,21,14.00
2013,07,15,02,22,14.00
2013,07,15,02,23,14.00
2013,07,15,02,24,14.10
2013,07,15,02,25,14.10
2013,07,15,02,26,14.10
2013,07,15,02,27,14.10
2013,07,15,02,28,14.10
2013,07,15,02,29,14.10
2013,07,15,02,30,14.10
2013,07,15,02,31,14.10
2013,07,15,02,32,14.10
2013,07,15,02,33,14.10
2013,07,15,02,34,14.10
2013,07,15,02,35,14.10
2013,07,15,02,36,14.10
2013,07,15,02,37,14.10
2013,07,15,02,38,14.10
2013,07,15,02,39,14.10
2013,07,15,02,40,14.20
2013,07,15,02,41,14.20
2013,07,15,02,42,14.20
2013,07,15,02,43,14.20
2013,07,15,02,44,14.20
2013,07,15,02,45,14.20
2013,07,15,02,46,14.20
2013,07,15,02,47,14.20
2013,07,15,02,48,14.20
2013,07,15,02,49,14.10
2013,07,15,02,50,14.10
2013,07,15,02,51,14.10
2013,07,15,02,52,14.10
2013,07,15,02,53,14.10
2013,07,15,02,54,14.10
2013,07,15,02,55,14.10
2013,07,15,02,56,14.20
2013,07,15,02,57,14.20
2013,07,15,02,58,14.20
2013,07,15,02,59,14.20
2013,07,15,03,00,14.20
2013,07,15,03,01,14.20
2013,07,15,03,02,14.20
2013,07,15,03,03,14.20
2013,07,15,03,04,14.20
2013,07,15,03,05,14.20
2013,07,15,03,06,14.20
2013,07,15,03,07,14.20
2013,07,15,03,08,14.10
2013,07,15,03,09,14.10
2013,07,15,03,10,14.10
2013,07,15,03,11,14.00
2013,07,15,03,12,14.00
2013,07,15,03,13,14.00
2013,07,15,03,14,14.00
2013,07,15,03,15,13.90
2013,07,15,03,16,13.90
2013,07,15,03,17,13.80
2013,07,15,03,18,13.80
2013,07,15,03,19,13.80
2013,07,15,03,20,13.70
2013,07,15,03,21,13.70
2013,07,15,03,22,13.70
2013,07,15,03,23,13.60
2013,07,15,03,24,13.60
2013,07,15,03,25,13.60
2013,07,15,03,26,13.60
2013,07,15,03,27,13.60
2013,07,15,03,28,13.60
2013,07,15,03,29,13.60
2013,07,15,03,30,13.60
2013,07,15,03,31,13.70
2013,07,15,03,32,13.70
2013,07,15,03,33,13.70
2013,07,15,03,34,13.80
2013,07,15,03,35,13.90
2013,07,15,03,36,13.90
2013,07,15,03,37,14.00
2013,07,15,03,38,14.20
2013,07,15,03,39,14.30
2013,07,15,03,40,14.40
2013,07,15,03,41,14.50
2013,07,15,03,42,14.60
2013,07,15,03,43,14.70
2013,07,15,03,44,14.70
2013,07,15,03,45,14.70
2013,07,15,03,46,14.70
2013,07,15,03,47,14.70
2013,07,15,03,48,14.70
2013,07,15,03,49,14.60
2013,07,15,03,50,14.60
2013,07,15,03,51,14.60
2013,07,15,03,52,14.70
2013,07,15,03,53,14.70
2013,07,15,03,54,14.70
2013,07,15,03,55,14.60
2013,07,15,03,56,14.60
2013,07,15,03,57,14.60
2013,07,15,03,58,14.50
2013,07,15,03,59,14.50
2013,07,15,04,00,14.40
2013,07,15,04,01,14.40
2013,07,15,04,02,14.40
2013,07,15,04,03,14.40
2013,07,15,04,04,14.40
2013,07,15,04,05,14.50
2013,07,15,04,06,14.50
2013,07,15,04,07,14.60
2013,07,15,04,08,14.60
2013,07,15,04,09,14.70
2013,07,15,04,10,14.80
2013,07,15,04,11,14.80
2013,07,15,04,12,14.80
2013,07,15,04,13,14.80
2013,07,15,04,14,14.90
2013,07,15,04,15,14.90
2013,07,15,04,16,14.90
2013,07,15,04,17,14.90
2013,07,15,04,18,14.90
2013,07,15,04,19,14.90
2013,07,15,04,20,14.90
2013,07,15,04,21,14.90
2013,07,15,04,22,14.90
2013,07,15,04,23,14.80
2013,07,15,04,24,14.80
2013,07,15,04,25,14.80
2013,07,15,04,26,14.80
2013,07,15,04,27,14.80
2013,07,15,04,28,14.90
2013,07,15,04,29,14.90
2013,07,15,04,30,14.90
2013,07,15,04,31,14.90
2013,07,15,04,32,14.90
2013,07,15,04,33,14.90
2013,07,15,04,34,14.90
2013,07,15,04,35,14.80
2013,07,15,04,36,14.80
2013,07,15,04,37,14.80
2013,07,15,04,38,14.80
2013,07,15,04,39,14.70
2013,07,15,04,40,14.70
2013,07,15,04,41,14.60
2013,07,15,04,42,14.50
2013,07,15,04,43,14.40
2013,07,15,04,44,14.30
2013,07,15,04,45,14.30
2013,07,15,04,46,14.20
2013,07,15,04,47,14.20
2013,07,15,04,48,14.20
2013,07,15,04,49,14.20
2013,07,15,04,50,14.20
2013,07,15,04,51,14.20
2013,07,15,04,52,14.30
2013,07,15,04,53,14.30
2013,07,15,04,54,14.30
2013,07,15,04,55,14.40
2013,07,15,04,56,14.40
2013,07,15,04,57,14.40
2013,07,15,04,58,14.40
2013,07,15,04,59,14.40
2013,07,15,05,00,14.40
2013,07,15,05,01,14.40
2013,07,15,05,02,14.40
2013,07,15,05,03,14.40
2013,07,15,05,04,14.40
2013,07,15,05,05,14.40
2013,07,15,05,06,14.40
2013,07,15,05,07,14.40
2013,07,15,05,08,14.30
2013,07,15,05,09,14.30
2013,07,15,05,10,14.20
2013,07,15,05,11,14.20
2013,07,15,05,12,14.10
2013,07,15,05,13,14.00
2013,07,15,05,14,14.00
2013,07,15,05,15,13.90
2013,07,15,05,16,13.90
2013,07,15,05,17,13.90
2013,07,15,05,18,13.90
2013,07,15,05,19,13.80
2013,07,15,05,20,13.80
2013,07,15,05,21,13.80
2013,07,15,05,22,13.80
2013,07,15,05,23,13.70
2013,07,15,05,24,13.80
2013,07,15,05,25,13.80
2013,07,15,05,26,13.80
2013,07,15,05,27,13.80
2013,07,15,05,28,13.80
2013,07,15,05,29,13.90
2013,07,15,05,30,13.90
2013,07,15,05,31,13.90
2013,07,15,05,32,13.90
2013,07,15,05,33,13.90
2013,07,15,05,34,13.90
2013,07,15,05,35,13.90
2013,07,15,05,36,14.00
2013,07,15,05,37,14.00
2013,07,15,05,38,14.00
2013,07,15,05,39,14.00
2013,07,15,05,40,14.00
2013,07,15,05,41,14.00
2013,07,15,05,42,13.90
2013,07,15,05,43,13.90
2013,07,15,05,44,13.90
2013,07,15,05,45,13.80
2013,07,15,05,46,13.80
2013,07,15,05,47,13.80
2013,07,15,05,48,13.80
2013,07,15,05,49,13.80
2013,07,15,05,50,13.70
2013,07,15,05,51,13.70
2013,07,15,05,52,13.70
2013,07,15,05,53,13.70
2013,07,15,05,54,13.70
2013,07,15,05,55,13.70
2013,07,15,05,56,13.70
2013,07,15,05,57,13.70
2013,07,15,05,58,13.70
2013,07,15,05,59,13.70
2013,07,15,06,00,13.70
2013,07,15,06,01,13.70
2013,07,15,06,02,13.70
2013,07,15,06,03,13.70
2013,07,15,06,04,13.70
2013,07,15,06,05,13.70
2013,07,15,06,06,13.70
2013,07,15,06,07,13.70
2013,07,15,06,08,13.70
2013,07,15,06,09,13.70
2013,07,15,06,10,13.70
2013,07,15,06,11,13.70
2013,07,15,06,12,13.60
2013,07,15,06,13,13.60
2013,07,15,06,14,13.60
2013,07,15,06,15,13.50
2013,07,15,06,16,13.50
2013,07,15,06,17,13.60
2013,07,15,06,18,13.60
2013,07,15,06,19,13.60
2013,07,15,06,20,13.60
2013,07,15,06,21,13.60
2013,07,15,06,22,13.60
2013,07,15,06,23,13.60
2013,07,15,06,24,13.60
2013,07,15,06,25,13.60
2013,07,15,06,26,13.60
2013,07,15,06,27,13.60
2013,07,15,06,28,13.60
2013,07,15,06,29,13.70
2013,07,15,06,30,13.70
2013,07,15,06,31,13.70
2013,07,15,06,32,13.70
2013,07,15,06,33,13.70
2013,07,15,06,34,13.80
2013,07,15,06,35,13.90
2013,07,15,06,36,13.90
2013,07,15,06,37,14.10
2013,07,15,06,38,14.20
2013,07,15,06,39,14.20
2013,07,15,06,40,14.20
2013,07,15,06,41,14.40
2013,07,15,06,42,14.50
2013,07,15,06,43,14.60
2013,07,15,06,44,14.60
2013,07,15,06,45,14.70
2013,07,15,06,46,14.80
2013,07,15,06,47,14.90
2013,07,15,06,48,15.00
2013,07,15,06,49,15.10
2013,07,15,06,50,15.10
2013,07,15,06,51,15.20
2013,07,15,06,52,15.30
2013,07,15,06,53,15.30
2013,07,15,06,54,15.30
2013,07,15,06,55,15.50
2013,07,15,06,56,15.60
2013,07,15,06,57,15.60
2013,07,15,06,58,15.70
2013,07,15,06,59,15.70
2013,07,15,07,00,15.70
2013,07,15,07,01,15.80
2013,07,15,07,02,15.80
2013,07,15,07,03,15.80
2013,07,15,07,04,15.80
2013,07,15,07,05,15.80
2013,07,15,07,06,15.80
2013,07,15,07,07,15.90
2013,07,15,07,08,16.00
2013,07,15,07,09,16.10
2013,07,15,07,10,16.10
2013,07,15,07,11,16.10
2013,07,15,07,12,16.10
2013,07,15,07,13,16.10
2013,07,15,07,14,16.10
2013,07,15,07,15,16.10
2013,07,15,07,16,16.10
2013,07,15,07,17,16.10
2013,07,15,07,18,16.10
2013,07,15,07,19,16.10
2013,07,15,07,20,16.10
2013,07,15,07,21,16.20
2013,07,15,07,22,16.20
2013,07,15,07,23,16.20
2013,07,15,07,24,16.30
2013,07,15,07,25,16.30
2013,07,15,07,26,16.30
2013,07,15,07,27,16.40
2013,07,15,07,28,16.40
2013,07,15,07,29,16.40
2013,07,15,07,30,16.40
2013,07,15,07,31,16.40
2013,07,15,07,32,16.40
2013,07,15,07,33,16.40
2013,07,15,07,34,16.50
2013,07,15,07,35,16.60
2013,07,15,07,36,16.60
2013,07,15,07,37,16.60
2013,07,15,07,38,16.60
2013,07,15,07,39,16.70
2013,07,15,07,40,16.70
2013,07,15,07,41,16.70
2013,07,15,07,42,16.60
2013,07,15,07,43,16.60
2013,07,15,07,44,16.70
2013,07,15,07,45,16.70
2013,07,15,07,46,16.70
2013,07,15,07,47,16.70
2013,07,15,07,48,16.70
2013,07,15,07,49,16.70
2013,07,15,07,50,16.70
2013,07,15,07,51,16.70
2013,07,15,07,52,16.80
2013,07,15,07,53,16.80
2013,07,15,07,54,16.90
2013,07,15,07,55,16.90
2013,07,15,07,56,16.90
2013,07,15,07,57,17.00
2013,07,15,07,58,17.00
2013,07,15,07,59,17.10
2013,07,15,08,00,17.10
2013,07,15,08,01,17.10
2013,07,15,08,02,17.20
2013,07,15,08,03,17.20
2013,07,15,08,04,17.30
2013,07,15,08,05,17.30
2013,07,15,08,06,17.30
2013,07,15,08,07,17.40
2013,07,15,08,08,17.40
2013,07,15,08,09,17.50
2013,07,15,08,10,17.50
2013,07,15,08,11,17.60
2013,07,15,08,12,17.60
2013,07,15,08,13,17.70
2013,07,15,08,14,17.70
2013,07,15,08,15,17.70
2013,07,15,08,16,17.70
2013,07,15,08,17,17.70
2013,07,15,08,18,17.70
2013,07,15,08,19,17.70
2013,07,15,08,20,17.70
2013,07,15,08,21,17.80
2013,07,15,08,22,17.90
2013,07,15,08,23,17.90
2013,07,15,08,24,17.90
2013,07,15,08,25,17.90
2013,07,15,08,26,17.90
2013,07,15,08,27,17.90
2013,07,15,08,28,18.00
2013,07,15,08,29,18.10
2013,07,15,08,30,18.10
2013,07,15,08,31,18.20
2013,07,15,08,32,18.20
2013,07,15,08,33,18.20
2013,07,15,08,34,18.20
2013,07,15,08,35,18.30
2013,07,15,08,36,18.30
2013,07,15,08,37,18.30
2013,07,15,08,38,18.30
2013,07,15,08,39,18.30
2013,07,15,08,40,18.30
2013,07,15,08,41,18.30
2013,07,15,08,42,18.20
2013,07,15,08,43,18.20
2013,07,15,08,44,18.20
2013,07,15,08,45,18.20
2013,07,15,08,46,18.20
2013,07,15,08,47,18.20
2013,07,15,08,48,18.20
2013,07,15,08,49,18.20
2013,07,15,08,50,18.20
2013,07,15,08,51,18.20
2013,07,15,08,52,18.20
2013,07,15,08,53,18.30
2013,07,15,08,54,18.20
2013,07,15,08,55,18.20
2013,07,15,08,56,18.30
2013,07,15,08,57,18.30
2013,07,15,08,58,18.30
2013,07,15,08,59,18.30
2013,07,15,09,00,18.20
2013,07,15,09,01,18.30
2013,07,15,09,02,18.30
2013,07,15,09,03,18.40
2013,07,15,09,04,18.40
2013,07,15,09,05,18.30
2013,07,15,09,06,18.20
2013,07,15,09,07,18.20
2013,07,15,09,08,18.20
2013,07,15,09,09,18.20
2013,07,15,09,10,18.20
2013,07,15,09,11,18.30
2013,07,15,09,12,18.30
2013,07,15,09,13,18.50
2013,07,15,09,14,18.50
2013,07,15,09,15,18.60
2013,07,15,09,16,18.60
2013,07,15,09,17,18.70
2013,07,15,09,18,18.70
2013,07,15,09,19,18.70
2013,07,15,09,20,18.80
2013,07,15,09,21,18.80
2013,07,15,09,22,18.80
2013,07,15,09,23,18.90
2013,07,15,09,24,18.90
2013,07,15,09,25,19.00
2013,07,15,09,26,19.10
2013,07,15,09,27,19.10
2013,07,15,09,28,19.10
2013,07,15,09,29,19.10
2013,07,15,09,30,19.10
2013,07,15,09,31,19.10
2013,07,15,09,32,19.10
2013,07,15,09,33,19.10
2013,07,15,09,34,19.10
2013,07,15,09,35,19.10
2013,07,15,09,36,19.10
2013,07,15,09,37,19.10
2013,07,15,09,38,19.10
2013,07,15,09,39,19.10
2013,07,15,09,40,19.10
2013,07,15,09,41,19.10
2013,07,15,09,42,19.10
2013,07,15,09,43,19.10
2013,07,15,09,44,19.10
2013,07,15,09,45,19.10
2013,07,15,09,46,19.10
2013,07,15,09,47,19.10
2013,07,15,09,48,19.10
2013,07,15,09,49,19.10
2013,07,15,09,50,19.00
2013,07,15,09,51,19.00
2013,07,15,09,52,19.10
2013,07,15,09,53,19.10
2013,07,15,09,54,19.10
2013,07,15,09,55,19.10
2013,07,15,09,56,19.10
2013,07,15,09,57,19.10
2013,07,15,09,58,19.10
2013,07,15,09,59,19.10
2013,07,15,10,00,19.10
2013,07,15,10,01,19.10
2013,07,15,10,02,19.10
2013,07,15,10,03,19.10
2013,07,15,10,04,19.10
2013,07,15,10,05,19.10
2013,07,15,10,06,19.10
2013,07,15,10,07,19.00
2013,07,15,10,08,19.10
2013,07,15,10,09,19.10
2013,07,15,10,10,19.10
2013,07,15,10,11,19.10
2013,07,15,10,12,19.10
2013,07,15,10,13,19.10
2013,07,15,10,14,19.20
2013,07,15,10,15,19.30
2013,07,15,10,16,19.30
2013,07,15,10,17,19.30
2013,07,15,10,18,19.40
2013,07,15,10,19,19.40
2013,07,15,10,20,19.40
2013,07,15,10,21,19.40
2013,07,15,10,22,19.40
2013,07,15,10,23,19.50
2013,07,15,10,24,19.50
2013,07,15,10,25,19.50
2013,07,15,10,26,19.50
2013,07,15,10,27,19.50
2013,07,15,10,28,19.40
2013,07,15,10,29,19.40
2013,07,15,10,30,19.40
2013,07,15,10,31,19.50
2013,07,15,10,32,19.50
2013,07,15,10,33,19.50
2013,07,15,10,34,19.50
2013,07,15,10,35,19.50
2013,07,15,10,36,19.50
2013,07,15,10,37,19.50
2013,07,15,10,38,19.50
2013,07,15,10,39,19.60
2013,07,15,10,40,19.70
2013,07,15,10,41,19.70
2013,07,15,10,42,19.80
2013,07,15,10,43,19.90
2013,07,15,10,44,19.90
2013,07,15,10,45,20.00
2013,07,15,10,46,20.10
2013,07,15,10,47,20.10
2013,07,15,10,48,20.20
2013,07,15,10,49,20.20
2013,07,15,10,50,20.20
2013,07,15,10,51,20.20
2013,07,15,10,52,20.20
2013,07,15,10,53,20.20
2013,07,15,10,54,20.10
2013,07,15,10,55,20.20
2013,07,15,10,56,20.20
2013,07,15,10,57,20.20
2013,07,15,10,58,20.30
2013,07,15,10,59,20.40
2013,07,15,11,00,20.40
2013,07,15,11,01,20.50
2013,07,15,11,02,20.60
2013,07,15,11,03,20.50
2013,07,15,11,04,20.60
2013,07,15,11,05,20.50
2013,07,15,11,06,20.50
2013,07,15,11,07,20.40
2013,07,15,11,08,20.40
2013,07,15,11,09,20.30
2013,07,15,11,10,20.20
2013,07,15,11,11,20.20
2013,07,15,11,12,20.20
2013,07,15,11,13,20.20
2013,07,15,11,14,20.20
2013,07,15,11,15,20.20
2013,07,15,11,16,20.20
2013,07,15,11,17,20.30
2013,07,15,11,18,20.30
2013,07,15,11,19,20.40
2013,07,15,11,20,20.60
2013,07,15,11,21,20.70
2013,07,15,11,22,20.80
2013,07,15,11,23,20.90
2013,07,15,11,24,20.90
2013,07,15,11,25,21.00
2013,07,15,11,26,21.10
2013,07,15,11,27,21.10
2013,07,15,11,28,21.10
2013,07,15,11,29,21.10
2013,07,15,11,30,21.10
2013,07,15,11,31,21.00
2013,07,15,11,32,21.00
2013,07,15,11,33,20.90
2013,07,15,11,34,20.90
2013,07,15,11,35,20.90
2013,07,15,11,36,20.90
2013,07,15,11,37,20.80
2013,07,15,11,38,20.70
2013,07,15,11,39,20.60
2013,07,15,11,40,20.60
2013,07,15,11,41,20.60
2013,07,15,11,42,20.60
2013,07,15,11,43,20.70
2013,07,15,11,44,20.80
2013,07,15,11,45,20.90
2013,07,15,11,46,21.10
2013,07,15,11,47,21.30
2013,07,15,11,48,21.30
2013,07,15,11,49,21.30
2013,07,15,11,50,21.20
2013,07,15,11,51,21.10
2013,07,15,11,52,21.00
2013,07,15,11,53,21.00
2013,07,15,11,54,20.90
2013,07,15,11,55,21.00
2013,07,15,11,56,21.00
2013,07,15,11,57,21.00
2013,07,15,11,58,21.00
2013,07,15,11,59,21.10
2013,07,15,12,00,21.30
2013,07,15,12,01,21.40
2013,07,15,12,02,21.40
2013,07,15,12,03,21.40
2013,07,15,12,04,21.40
2013,07,15,12,05,21.30
2013,07,15,12,06,21.30
2013,07,15,12,07,21.30
2013,07,15,12,08,21.30
2013,07,15,12,09,21.30
2013,07,15,12,10,21.30
2013,07,15,12,11,21.40
2013,07,15,12,12,21.60
2013,07,15,12,13,21.60
2013,07,15,12,14,21.70
2013,07,15,12,15,21.70
2013,07,15,12,16,21.80
2013,07,15,12,17,21.90
2013,07,15,12,18,21.90
2013,07,15,12,19,22.00
2013,07,15,12,20,22.00
2013,07,15,12,21,21.90
2013,07,15,12,22,21.90
2013,07,15,12,23,21.90
2013,07,15,12,24,22.00
2013,07,15,12,25,22.00
2013,07,15,12,26,22.00
2013,07,15,12,27,22.00
2013,07,15,12,28,22.00
2013,07,15,12,29,22.00
2013,07,15,12,30,21.80
2013,07,15,12,31,21.70
2013,07,15,12,32,21.70
2013,07,15,12,33,21.70
2013,07,15,12,34,21.70
2013,07,15,12,35,21.60
2013,07,15,12,36,21.70
2013,07,15,12,37,21.70
2013,07,15,12,38,21.70
2013,07,15,12,39,21.70
2013,07,15,12,40,21.60
2013,07,15,12,41,21.60
2013,07,15,12,42,21.60
2013,07,15,12,43,21.60
2013,07,15,12,44,21.60
2013,07,15,12,45,21.70
2013,07,15,12,46,21.80
2013,07,15,12,47,21.90
2013,07,15,12,48,21.90
2013,07,15,12,49,22.00
2013,07,15,12,50,22.00
2013,07,15,12,51,22.10
2013,07,15,12,52,22.30
2013,07,15,12,53,22.40
2013,07,15,12,54,22.50
2013,07,15,12,55,22.50
2013,07,15,12,56,22.40
2013,07,15,12,57,22.30
2013,07,15,12,58,22.20
2013,07,15,12,59,22.20
2013,07,15,13,00,22.20
2013,07,15,13,01,22.20
2013,07,15,13,02,22.20
2013,07,15,13,03,22.30
2013,07,15,13,04,22.30
2013,07,15,13,05,22.30
2013,07,15,13,06,22.30
2013,07,15,13,07,22.30
2013,07,15,13,08,22.30
2013,07,15,13,09,22.30
2013,07,15,13,10,22.30
2013,07,15,13,11,22.20
2013,07,15,13,12,22.30
2013,07,15,13,13,22.30
2013,07,15,13,14,22.30
2013,07,15,13,15,22.30
2013,07,15,13,16,22.30
2013,07,15,13,17,22.50
2013,07,15,13,18,22.50
2013,07,15,13,19,22.60
2013,07,15,13,20,22.80
2013,07,15,13,21,22.90
2013,07,15,13,22,23.00
2013,07,15,13,23,23.10
2013,07,15,13,24,23.30
2013,07,15,13,25,23.30
2013,07,15,13,26,23.30
2013,07,15,13,27,23.40
2013,07,15,13,28,23.50
2013,07,15,13,29,23.40
2013,07,15,13,30,23.30
2013,07,15,13,31,23.30
2013,07,15,13,32,23.30
2013,07,15,13,33,23.30
2013,07,15,13,34,23.30
2013,07,15,13,35,23.30
2013,07,15,13,36,23.40
2013,07,15,13,37,23.50
2013,07,15,13,38,23.60
2013,07,15,13,39,23.70
2013,07,15,13,40,23.70
2013,07,15,13,41,23.60
2013,07,15,13,42,23.40
2013,07,15,13,43,23.40
2013,07,15,13,44,23.30
2013,07,15,13,45,23.30
2013,07,15,13,46,23.30
2013,07,15,13,47,23.30
2013,07,15,13,48,23.30
2013,07,15,13,49,23.30
2013,07,15,13,50,23.30
2013,07,15,13,51,23.30
2013,07,15,13,52,23.30
2013,07,15,13,53,23.40
2013,07,15,13,54,23.50
2013,07,15,13,55,23.60
2013,07,15,13,56,23.60
2013,07,15,13,57,23.60
2013,07,15,13,58,23.70
2013,07,15,13,59,23.80
2013,07,15,14,00,23.80
2013,07,15,14,01,23.70
2013,07,15,14,02,23.60
2013,07,15,14,03,23.60
2013,07,15,14,04,23.60
2013,07,15,14,05,23.60
2013,07,15,14,06,23.50
2013,07,15,14,07,23.40
2013,07,15,14,08,23.40
2013,07,15,14,09,23.40
2013,07,15,14,10,23.50
2013,07,15,14,11,23.70
2013,07,15,14,12,23.70
2013,07,15,14,13,23.70
2013,07,15,14,14,23.70
2013,07,15,14,15,23.70
2013,07,15,14,16,23.70
2013,07,15,14,17,23.80
2013,07,15,14,18,23.90
2013,07,15,14,19,24.00
2013,07,15,14,20,24.10
2013,07,15,14,21,24.10
2013,07,15,14,22,24.00
2013,07,15,14,23,23.90
2013,07,15,14,24,23.90
2013,07,15,14,25,23.90
2013,07,15,14,26,24.00
2013,07,15,14,27,24.10
2013,07,15,14,28,24.10
2013,07,15,14,29,24.20
2013,07,15,14,30,24.30
2013,07,15,14,31,24.40
2013,07,15,14,32,24.30
2013,07,15,14,33,24.20
2013,07,15,14,34,24.10
2013,07,15,14,35,24.10
2013,07,15,14,36,24.10
2013,07,15,14,37,24.10
2013,07,15,14,38,24.20
2013,07,15,14,39,24.10
2013,07,15,14,40,24.10
2013,07,15,14,41,24.10
2013,07,15,14,42,24.10
2013,07,15,14,43,24.10
2013,07,15,14,44,24.10
2013,07,15,14,45,24.20
2013,07,15,14,46,24.30
2013,07,15,14,47,24.40
2013,07,15,14,48,24.50
2013,07,15,14,49,24.60
2013,07,15,14,50,24.50
2013,07,15,14,51,24.50
2013,07,15,14,52,24.50
2013,07,15,14,53,24.40
2013,07,15,14,54,24.40
2013,07,15,14,55,24.50
2013,07,15,14,56,24.50
2013,07,15,14,57,24.60
2013,07,15,14,58,24.60
2013,07,15,14,59,24.60
2013,07,15,15,00,24.50
2013,07,15,15,01,24.50
2013,07,15,15,02,24.60
2013,07,15,15,03,24.70
2013,07,15,15,04,24.70
2013,07,15,15,05,24.70
2013,07,15,15,06,24.70
2013,07,15,15,07,24.80
2013,07,15,15,08,24.80
2013,07,15,15,09,24.90
2013,07,15,15,10,24.90
2013,07,15,15,11,24.90
2013,07,15,15,12,24.90
2013,07,15,15,13,24.90
2013,07,15,15,14,24.80
2013,07,15,15,15,24.80
2013,07,15,15,16,24.80
2013,07,15,15,17,24.80
2013,07,15,15,18,24.90
2013,07,15,15,19,24.90
2013,07,15,15,20,25.00
2013,07,15,15,21,25.20
2013,07,15,15,22,25.20
2013,07,15,15,23,25.20
2013,07,15,15,24,25.10
2013,07,15,15,25,25.20
2013,07,15,15,26,25.20
2013,07,15,15,27,25.20
2013,07,15,15,28,25.20
2013,07,15,15,29,25.50
2013,07,15,15,30,25.60
2013,07,15,15,31,25.60
2013,07,15,15,32,25.70
2013,07,15,15,33,25.80
2013,07,15,15,34,25.80
2013,07,15,15,35,25.80
2013,07,15,15,36,25.70
2013,07,15,15,37,25.60
2013,07,15,15,38,25.50
2013,07,15,15,39,25.50
2013,07,15,15,40,25.50
2013,07,15,15,41,25.50
2013,07,15,15,42,25.60
2013,07,15,15,43,25.60
2013,07,15,15,44,25.70
2013,07,15,15,45,25.80
2013,07,15,15,46,25.80
2013,07,15,15,47,25.90
2013,07,15,15,48,25.90
2013,07,15,15,49,25.90
2013,07,15,15,50,25.90
2013,07,15,15,51,25.80
2013,07,15,15,52,25.60
2013,07,15,15,53,25.60
2013,07,15,15,54,25.50
2013,07,15,15,55,25.40
2013,07,15,15,56,25.40
2013,07,15,15,57,25.40
2013,07,15,15,58,25.50
2013,07,15,15,59,25.50
2013,07,15,16,00,25.40
2013,07,15,16,01,25.50
2013,07,15,16,02,25.50
2013,07,15,16,03,25.50
2013,07,15,16,04,25.40
2013,07,15,16,05,25.20
2013,07,15,16,06,25.10
2013,07,15,16,07,25.00
2013,07,15,16,08,25.00
2013,07,15,16,09,24.90
2013,07,15,16,10,24.90
2013,07,15,16,11,24.90
2013,07,15,16,12,25.00
2013,07,15,16,13,25.00
2013,07,15,16,14,25.00
2013,07,15,16,15,25.00
2013,07,15,16,16,25.00
2013,07,15,16,17,25.00
2013,07,15,16,18,25.00
2013,07,15,16,19,24.90
2013,07,15,16,20,24.90
2013,07,15,16,21,24.90
2013,07,15,16,22,24.90
2013,07,15,16,23,24.90
2013,07,15,16,24,25.10
2013,07,15,16,25,25.20
2013,07,15,16,26,25.30
2013,07,15,16,27,25.30
2013,07,15,16,28,25.30
2013,07,15,16,29,25.20
2013,07,15,16,30,25.20
2013,07,15,16,31,25.20
2013,07,15,16,32,25.20
2013,07,15,16,33,25.10
2013,07,15,16,34,25.10
2013,07,15,16,35,25.10
2013,07,15,16,36,25.10
2013,07,15,16,37,25.30
2013,07,15,16,38,25.30
2013,07,15,16,39,25.40
2013,07,15,16,40,25.50
2013,07,15,16,41,25.70
2013,07,15,16,42,25.80
2013,07,15,16,43,25.90
2013,07,15,16,44,26.00
2013,07,15,16,45,26.00
2013,07,15,16,46,26.00
2013,07,15,16,47,26.00
2013,07,15,16,48,25.90
2013,07,15,16,49,25.90
2013,07,15,16,50,25.90
2013,07,15,16,51,25.80
2013,07,15,16,52,25.80
2013,07,15,16,53,25.70
2013,07,15,16,54,25.50
2013,07,15,16,55,25.40
2013,07,15,16,56,25.40
2013,07,15,16,57,25.40
2013,07,15,16,58,25.40
2013,07,15,16,59,25.40
2013,07,15,17,00,25.40
2013,07,15,17,01,25.40
2013,07,15,17,02,25.40
2013,07,15,17,03,25.40
2013,07,15,17,04,25.50
2013,07,15,17,05,25.40
2013,07,15,17,06,25.40
2013,07,15,17,07,25.40
2013,07,15,17,08,25.40
2013,07,15,17,09,25.40
2013,07,15,17,10,25.40
2013,07,15,17,11,25.40
2013,07,15,17,12,25.40
2013,07,15,17,13,25.40
2013,07,15,17,14,25.30
2013,07,15,17,15,25.40
2013,07,15,17,16,25.40
2013,07,15,17,17,25.40
2013,07,15,17,18,25.50
2013,07,15,17,19,25.50